Location: Navajo
(48.7922°N, 105.0603°W)
Time: 10:32:43
(UTC+00:00)

DUCHIFAT 1 - Pass Details

Date: 01 July 2022
Orbit: 580 x 596 km, 98.0° (Epoch: 07 August)

Event Time Altitude Azimuth Distance (km) Brightness Sun altitude
Rises 08:50:41 0° 24° (NNE) 2,843 ? -14.3°
Reaches altitude 10° 08:53:09 10° 37° (NE) 1,939 ? -14.1°
Maximum altitude 08:56:42 26° 94° (E) 1,193 ? -13.8°
Drops below altitude 10° 09:00:13 10° 152° (SSE) 1,930 ? -13.6°
Enters shadow 09:00:42 - 155° (SSE) 2,097 ? -13.5°
